Tracking 35280 objects as of 7-Sep-2026
HD Live streaming from Space Station
objects crossing your sky now

STARLINK-30455

Track STARLINK-30455 now!
10-day predictions
STARLINK-30455 is classified as:


NORAD ID: 57942
Int'l Code: 2023-148H
Launch date: September 25, 2023
Source: United States (US)
Launch site: AIR FORCE WESTERN TEST RANGE (AFWTR)
Your satellite tracking list
Your tracking list is empty




NASA's NSSDC Master Catalog

Two Line Element Set (TLE):
1 57942U 23148H   26250.49267278  .00000300  00000-0  20455-4 0  9998
2 57942  53.1586 258.5352 0001249  84.5013 275.6131 15.33551046166274
Source of the keplerian elements: AFSPC